Tracking 25686 objects as of 25-May-2022
HD Live streaming from Space Station
objects crossing your sky now

ARIANE 42P DEB

Track ARIANE 42P DEB now!
10-day predictions


NORAD ID: 44508
Int'l Code: 1992-052F
Perigee: 1,073.2 km
Apogee: 1,731.1 km
Inclination: 66.0 °
Period: 113.7 minutes
Semi major axis: 7773 km
RCS: Unknown
Launch date: August 10, 1992
Source: France (FR)
Launch site: FRENCH GUIANA (FRGUI)

Note: This is SATELLITE DEBRIS
aabbcc
Your satellite tracking list
Your tracking list is empty




NASA's NSSDC Master Catalog

Two Line Element Set (TLE):
1 44508U 92052F   22144.43585217  .00001254  00000-0  48518-2 0  9997
2 44508  66.0407 169.7791 0423199 226.6791 129.8207 12.66801008128380
Source of the keplerian elements: AFSPC